Regional Weather Roundup
Issued by NWS

Home | Current Version | Previous Version | Text Only | Print | Product List | Glossary Off
Versions: 1 2 3 4 5 6 7 8 9 10 11 12 13 14 15 16 17 18 19 20 21 22 23 24 25 26 27 28 29 30 31 32 33 34 35 36 37 38 39 40 41 42 43 44 45 46 47 48 49 50

509
ASUS43 KIND 251859
RWRIN

WEATHER ROUNDUP FOR INDIANA
NATIONAL WEATHER SERVICE INDIANAPOLIS IN
300 PM EDT THU AUG 25 2016

NOTE: "FAIR" INDICATES FEW OR NO CLOUDS BELOW 12,000 FEET WITH NO
SIGNIFICANT WEATHER AND/OR OBSTRUCTIONS TO VISIBILITY.

* - STATION DOES NOT REPORT WEATHER SUCH AS PRECIPITATION OR FOG.

+ - STATION NOT QUALITY CONTROLLED BY THE NATIONAL WEATHER SERVICE.
    USE DATA WITH CAUTION...ESPECIALLY DEWPOINT AND RELATIVE
    HUMIDITY OBSERVATIONS.

INZ001>003-010>013-019-020-252000-
NORTHWEST INDIANA

CITY           SKY/WX    TMP DP  RH WIND       PRES   REMARKS
GARY /AIRPORT/ CLOUDY    77  72  83 N5        30.05S
KNOX *+        CLOUDY    79  50  36 W8        30.05R
MONTICELLO +   PTSUNNY   81  67  62 W9G16     30.05S

$$

LMZ046-743>745-252000-
SOUTHERN LAKE MICHIGAN

STATION/POSITION TIME  TEMP    WIND        PRES    WAVE
                       AIR SEA DIR/SP/G            HT
                 (UTC) (F)     (DEG/KT/KT) (MB)    (FT)
BURNS HARBOR     1816   73     340/  4/ 10 1017.9R
MICHIGAN CITY    1800   74     270/  5/  5   N/A
5NW MICH CITY    1800   73 74  310/  6/  8   N/A     1

$$

INZ004-005-014>016-021>024-252000-
NORTH CENTRAL INDIANA

CITY           SKY/WX    TMP DP  RH WIND       PRES   REMARKS
ELKHART        CLOUDY    77  70  78 W12G17    30.04F
GOSHEN         CLOUDY    78  68  71 W14       30.04S
SOUTH BEND     PTSUNNY   77  71  82 W12       30.05S

$$

INZ006>009-017-018-025>027-252000-
NORTHEAST INDIANA

CITY           SKY/WX    TMP DP  RH WIND       PRES   REMARKS
ANGOLA *+      PTSUNNY   82  79  89 W13       30.03S
FORT WAYNE     MOSUNNY   85  69  58 W12G20    30.04S

$$

INZ028-029-035-036-043>045-051>053-252000-
WEST CENTRAL INDIANA

CITY           SKY/WX    TMP DP  RH WIND       PRES   REMARKS
CRAWFORDSVL +  SUNNY     83  71  65 SW8       30.08S
LAFAYETTE      PTSUNNY   84  72  67 W10       30.05F
TERRE HAUTE    MOSUNNY   87  71  58 SW8       30.08S

$$

INZ030>032-037>040-046>048-054>057-064-065-252000-
CENTRAL INDIANA

CITY           SKY/WX    TMP DP  RH WIND       PRES   REMARKS
ANDERSON       SUNNY     86  72  62 W12       30.07S
COLUMBUS       MOSUNNY   88  75  66 W8        30.08S HX  97
INDIANAPOLIS   MOSUNNY   88  71  57 SW16G25   30.07S
-EAGLE CREEK   MOSUNNY   87  72  60 VRB7      30.07S
MT COMFORT *+  MOSUNNY   84  72  65 W9G16     30.08S
SHELBYVILLE    MOSUNNY   89  73  59 W10       30.07S HX  97

$$

INZ033-034-041-042-049-050-058-059-252000-
EAST CENTRAL INDIANA

CITY           SKY/WX    TMP DP  RH WIND       PRES   REMARKS
MUNCIE         SUNNY     87  73  62 W10       30.06S

$$

INZ060-061-067>069-081>083-085>088-252000-
SOUTHWEST INDIANA

CITY           SKY/WX    TMP DP  RH WIND       PRES   REMARKS
EVANSVILLE     MOSUNNY   91  70  49 SW13      30.09S HX  96
HUNTINGBURG *+ MOSUNNY   91  73  55 S13       30.09F HX 100

$$

INZ062-063-066-070>080-084-089>092-252000-
SOUTH CENTRAL AND SOUTHEAST INDIANA

CITY           SKY/WX    TMP DP  RH WIND       PRES   REMARKS
BLOOMINGTON    MOSUNNY   88  74  63 W6        30.09F HX  96
MADISON *+     MOSUNNY   88  72  58 SW9       30.11S

$$





USA.gov is the U.S. government's official web portal to all federal, state and local government web resources and services.